2022/08/11 23:34:12+0000,-36.91,-44.95,-32.29,-49.33,-56.26,-58.38
2022/08/11 23:35:04+0000,-35.88,-45.22,-32.14,-50.19,-56.78,-58.21
2022/08/11 23:35:56+0000,-37.23,-45.10,-32.08,-49.75,-56.64,-58.56
2022/08/11 23:36:48+0000,-36.94,-44.66,-31.84,-49.68,-56.71,-58.21
2022/08/11 23:37:41+0000,-36.39,-45.38,-32.34,-49.26,-56.29,-58.16
2022/08/11 23:38:33+0000,-36.49,-44.54,-32.20,-49.13,-56.56,-58.55
2022/08/11 23:39:25+0000,-36.79,-45.29,-32.21,-48.50,-56.27,-58.40
2022/08/11 23:40:17+0000,-36.46,-44.76,-32.63,-49.45,-57.25,-58.22
2022/08/11 23:41:16+0000,-37.32,-44.88,-32.26,-48.44,-57.05,-57.92
2022/08/11 23:42:08+0000,-36.00,-45.35,-32.02,-50.78,-56.83,-58.09
2022/08/11 23:43:00+0000,-37.18,-44.84,-32.65,-48.86,-57.16,-57.65
2022/08/11 23:43:52+0000,-36.42,-45.44,-31.79,-48.96,-57.07,-57.75
2022/08/11 23:44:44+0000,-36.97,-44.68,-32.08,-49.44,-56.66,-58.66
2022/08/11 23:45:36+0000,-37.62,-45.34,-32.84,-49.52,-56.94,-58.40
2022/08/11 23:46:28+0000,-36.68,-45.90,-32.12,-47.71,-57.41,-58.28
2022/08/11 23:47:20+0000,-36.81,-45.43,-32.41,-49.84,-56.69,-58.16
2022/08/11 23:48:12+0000,-36.79,-44.87,-31.70,-47.83,-56.33,-58.31
2022/08/11 23:49:04+0000,-36.52,-46.19,-32.48,-50.53,-56.47,-57.86
2022/08/11 23:49:56+0000,-37.15,-46.02,-32.45,-49.05,-56.61,-58.00
2022/08/11 23:50:48+0000,-34.85,-44.34,-32.53,-50.08,-56.89,-58.67
2022/08/11 23:51:47+0000,-37.91,-45.39,-32.31,-49.28,-56.91,-58.14
2022/08/11 23:52:39+0000,-37.02,-45.28,-32.01,-50.05,-57.37,-58.40
2022/08/11 23:53:31+0000,-36.59,-44.89,-31.92,-49.14,-56.87,-58.84
2022/08/11 23:54:23+0000,-37.12,-46.07,-32.60,-50.12,-56.46,-57.93
2022/08/11 23:55:15+0000,-35.91,-44.67,-31.88,-50.11,-56.34,-57.59
2022/08/11 23:56:07+0000,-36.45,-46.10,-31.33,-49.84,-56.97,-57.96
2022/08/11 23:56:59+0000,-37.10,-45.04,-31.79,-47.73,-57.26,-58.90
2022/08/11 23:57:51+0000,-37.86,-45.18,-31.74,-49.17,-57.23,-58.65
2022/08/11 23:58:43+0000,-37.02,-46.06,-32.30,-49.68,-57.11,-58.37
2022/08/11 23:59:35+0000,-37.60,-44.72,-32.24,-50.41,-56.95,-58.77
2022/08/12 00:00:28+0000,-36.83,-45.06,-31.99,-49.06,-56.38,-58.39
2022/08/12 00:01:29+0000,-36.50,-44.48,-32.47,-48.88,-57.45,-58.62
2022/08/12 00:02:21+0000,-35.93,-45.16,-32.38,-49.83,-57.07,-58.73
2022/08/12 00:03:13+0000,-36.09,-46.06,-31.63,-49.84,-57.08,-58.54
2022/08/12 00:04:05+0000,-35.60,-45.85,-32.57,-49.17,-56.88,-58.39
2022/08/12 00:04:57+0000,-36.55,-44.92,-32.32,-49.30,-57.25,-58.21
2022/08/12 00:05:49+0000,-36.12,-45.11,-32.17,-51.14,-57.04,-58.29
2022/08/12 00:06:41+0000,-36.31,-45.74,-31.71,-50.27,-57.08,-57.98
2022/08/12 00:07:33+0000,-36.58,-45.25,-31.79,-49.78,-57.13,-58.45
2022/08/12 00:08:25+0000,-37.10,-45.66,-32.32,-48.86,-57.28,-58.67
2022/08/12 00:09:17+0000,-37.04,-45.38,-32.40,-49.76,-57.41,-58.56
2022/08/12 00:10:09+0000,-36.19,-45.30,-32.36,-49.60,-57.62,-58.85
2022/08/12 00:11:08+0000,-36.10,-45.27,-32.16,-49.02,-57.19,-58.51
2022/08/12 00:12:00+0000,-36.55,-45.67,-32.06,-46.08,-56.99,-58.14
2022/08/12 00:12:52+0000,-36.85,-45.05,-32.45,-46.59,-56.37,-58.25
2022/08/12 00:13:44+0000,-36.50,-45.80,-32.79,-49.10,-55.54,-58.10
2022/08/12 00:14:36+0000,-36.90,-45.12,-32.63,-48.87,-55.05,-58.61
2022/08/12 00:15:28+0000,-38.02,-44.61,-32.18,-45.86,-55.34,-58.48
2022/08/12 00:16:20+0000,-37.55,-45.04,-32.35,-49.48,-55.89,-58.55
2022/08/12 00:17:12+0000,-35.92,-45.08,-32.60,-49.02,-55.16,-58.61
2022/08/12 00:18:04+0000,-36.56,-44.37,-32.55,-49.95,-55.12,-58.43
2022/08/12 00:18:56+0000,-37.73,-44.48,-32.68,-48.46,-55.86,-59.00
2022/08/12 00:19:49+0000,-36.30,-44.47,-32.82,-49.57,-55.57,-58.12
2022/08/12 00:20:41+0000,-38.34,-44.29,-32.81,-48.75,-56.04,-58.65
2022/08/12 00:21:40+0000,-36.37,-45.58,-32.48,-48.63,-55.68,-58.85
2022/08/12 00:22:32+0000,-36.81,-45.42,-32.85,-46.12,-55.71,-57.84
2022/08/12 00:23:24+0000,-36.04,-45.47,-32.17,-45.97,-55.36,-58.03
2022/08/12 00:24:16+0000,-36.76,-45.91,-32.62,-49.24,-55.65,-58.31
2022/08/12 00:25:08+0000,-35.66,-44.97,-32.83,-49.27,-55.91,-58.52
2022/08/12 00:26:00+0000,-36.90,-45.66,-32.68,-46.38,-56.07,-58.58
2022/08/12 00:26:52+0000,-36.21,-44.36,-32.46,-46.34,-55.90,-58.78
2022/08/12 00:27:44+0000,-36.14,-44.97,-32.85,-49.68,-55.58,-58.25
2022/08/12 00:28:36+0000,-37.38,-45.03,-32.37,-48.88,-55.43,-58.48
2022/08/12 00:29:29+0000,-36.29,-45.50,-31.79,-46.04,-56.80,-58.43
2022/08/12 00:30:21+0000,-36.79,-45.77,-32.75,-46.55,-55.62,-57.94
2022/08/12 00:31:20+0000,-36.88,-44.51,-32.80,-49.79,-55.58,-58.15
2022/08/12 00:32:12+0000,-36.41,-45.35,-33.08,-49.08,-55.09,-58.26
2022/08/12 00:33:04+0000,-36.56,-46.36,-32.12,-49.14,-55.80,-58.30
2022/08/12 00:33:56+0000,-37.51,-44.86,-32.83,-47.82,-55.92,-58.64
2022/08/12 00:34:48+0000,-36.44,-45.36,-32.81,-48.79,-55.79,-58.36
2022/08/12 00:35:40+0000,-36.74,-44.76,-32.20,-47.86,-55.20,-58.95
2022/08/12 00:36:32+0000,-35.80,-44.89,-32.43,-45.54,-54.89,-58.88
2022/08/12 00:37:24+0000,-36.65,-45.85,-31.58,-44.19,-56.00,-58.84
2022/08/12 00:38:16+0000,-36.14,-45.84,-32.89,-48.67,-55.80,-58.22
2022/08/12 00:39:08+0000,-36.39,-45.37,-32.45,-49.20,-55.82,-58.70
2022/08/12 00:40:00+0000,-36.41,-45.21,-32.90,-45.39,-55.60,-58.96
2022/08/12 00:40:59+0000,-36.43,-45.67,-33.02,-45.42,-55.81,-58.69
2022/08/12 00:41:51+0000,-36.18,-46.16,-32.88,-49.14,-55.75,-58.76
2022/08/12 00:42:43+0000,-36.46,-45.45,-32.42,-48.05,-55.88,-58.13
2022/08/12 00:43:35+0000,-37.33,-45.15,-32.56,-49.71,-55.90,-58.56
2022/08/12 00:44:27+0000,-36.79,-45.21,-32.66,-47.90,-55.76,-58.41
2022/08/12 00:45:19+0000,-36.70,-45.36,-32.51,-49.83,-55.06,-58.80
2022/08/12 00:46:11+0000,-36.54,-45.45,-32.52,-45.85,-54.93,-58.65
2022/08/12 00:47:03+0000,-36.75,-45.13,-32.60,-48.50,-55.02,-58.81
2022/08/12 00:47:55+0000,-36.42,-44.79,-32.69,-47.42,-55.09,-58.91
2022/08/12 00:48:47+0000,-36.34,-44.10,-32.86,-48.81,-55.62,-58.94
2022/08/12 00:49:39+0000,-36.95,-45.37,-32.35,-48.75,-54.82,-58.41
2022/08/12 00:50:32+0000,-37.09,-44.37,-32.85,-48.16,-55.40,-58.39
2022/08/12 00:51:31+0000,-35.96,-46.13,-32.57,-48.37,-55.34,-58.80
2022/08/12 00:52:23+0000,-36.66,-45.57,-32.75,-47.68,-55.25,-58.19
2022/08/12 00:53:15+0000,-36.81,-45.52,-32.38,-46.39,-55.75,-58.39
2022/08/12 00:54:07+0000,-35.93,-44.96,-32.64,-45.95,-54.89,-58.46
2022/08/12 00:54:59+0000,-36.48,-44.60,-32.73,-48.33,-55.09,-58.25
2022/08/12 00:55:51+0000,-37.47,-45.23,-32.18,-49.15,-54.76,-58.72
2022/08/12 00:56:43+0000,-36.95,-45.79,-32.57,-46.78,-55.33,-58.67
2022/08/12 00:57:35+0000,-36.63,-45.81,-32.89,-50.11,-55.67,-58.23
2022/08/12 00:58:27+0000,-36.35,-45.25,-32.42,-47.76,-55.08,-58.82
2022/08/12 00:59:19+0000,-36.09,-44.59,-32.76,-49.59,-55.11,-58.26
2022/08/12 01:00:11+0000,-36.97,-44.99,-32.20,-46.09,-55.36,-58.32
2022/08/12 01:01:11+0000,-36.40,-44.55,-32.66,-46.59,-55.19,-57.80
2022/08/12 01:02:03+0000,-37.63,-46.51,-32.66,-49.27,-54.80,-58.25
2022/08/12 01:02:55+0000,-37.24,-45.69,-32.53,-49.52,-55.21,-58.45
2022/08/12 01:03:47+0000,-36.58,-45.48,-32.43,-48.38,-55.04,-58.66
2022/08/12 01:04:39+0000,-37.05,-45.48,-32.82,-46.08,-55.46,-58.50
2022/08/12 01:05:31+0000,-37.00,-44.20,-32.76,-48.66,-55.42,-58.04
2022/08/12 01:06:23+0000,-36.64,-45.22,-32.79,-48.16,-55.03,-58.31
2022/08/12 01:07:15+0000,-35.30,-45.84,-32.57,-45.85,-55.09,-58.59
2022/08/12 01:08:07+0000,-35.78,-45.21,-32.64,-45.25,-54.91,-58.02
2022/08/12 01:08:59+0000,-35.97,-46.05,-32.45,-47.92,-55.34,-58.28
2022/08/12 01:09:52+0000,-36.07,-45.94,-32.75,-47.77,-55.11,-58.13
2022/08/12 01:10:44+0000,-36.21,-45.07,-32.27,-44.03,-55.07,-58.44
2022/08/12 01:11:43+0000,-36.60,-45.02,-32.88,-45.32,-55.38,-58.19
2022/08/12 01:12:35+0000,-35.32,-45.92,-32.11,-46.49,-54.88,-58.51
2022/08/12 01:13:27+0000,-36.04,-44.47,-32.61,-47.03,-55.29,-58.65
2022/08/12 01:14:19+0000,-35.35,-44.46,-32.10,-49.21,-54.79,-58.41
2022/08/12 01:15:11+0000,-35.12,-44.85,-32.58,-45.61,-55.04,-58.44
2022/08/12 01:16:03+0000,-36.14,-45.57,-32.53,-49.56,-54.99,-58.42
2022/08/12 01:16:55+0000,-36.39,-45.13,-32.38,-48.13,-55.14,-58.21
2022/08/12 01:17:47+0000,-35.26,-45.30,-33.32,-45.78,-54.83,-57.99
2022/08/12 01:18:39+0000,-35.48,-45.02,-32.39,-45.52,-54.94,-58.78
2022/08/12 01:19:31+0000,-36.15,-45.05,-32.12,-47.42,-55.23,-58.36
2022/08/12 01:20:23+0000,-36.27,-45.88,-31.94,-48.27,-54.95,-58.36
2022/08/12 01:21:26+0000,-36.26,-44.89,-32.56,-48.14,-55.07,-58.21
2022/08/12 01:22:18+0000,-37.20,-45.14,-31.96,-49.54,-55.46,-58.02
2022/08/12 01:23:10+0000,-36.46,-44.71,-32.40,-48.54,-54.67,-58.40
2022/08/12 01:24:02+0000,-36.67,-44.66,-32.17,-47.81,-54.99,-58.52
2022/08/12 01:24:55+0000,-36.36,-45.67,-32.90,-48.19,-54.92,-58.75
2022/08/12 01:25:47+0000,-36.72,-44.99,-32.23,-47.20,-55.59,-57.96
2022/08/12 01:26:39+0000,-36.75,-45.06,-32.59,-47.72,-55.91,-58.27
2022/08/12 01:27:31+0000,-36.53,-45.04,-33.20,-48.06,-55.49,-58.29
2022/08/12 01:28:23+0000,-36.27,-45.98,-32.47,-46.53,-55.08,-58.28
2022/08/12 01:29:15+0000,-36.75,-45.03,-33.23,-48.40,-55.11,-58.00
2022/08/12 01:30:07+0000,-36.00,-45.47,-32.19,-47.94,-55.39,-58.32
2022/08/12 01:31:06+0000,-35.83,-44.31,-33.30,-48.46,-54.94,-57.72
2022/08/12 01:31:58+0000,-35.42,-45.29,-32.33,-48.26,-55.06,-58.33
2022/08/12 01:32:50+0000,-35.79,-45.14,-32.99,-49.14,-54.00,-58.22
2022/08/12 01:33:42+0000,-35.73,-43.68,-32.04,-47.31,-54.68,-57.92
2022/08/12 01:34:34+0000,-35.68,-45.18,-32.52,-50.07,-54.42,-58.07
2022/08/12 01:35:26+0000,-35.80,-45.04,-32.73,-48.83,-54.74,-58.02
2022/08/12 01:36:18+0000,-36.89,-45.84,-33.01,-49.38,-55.03,-58.17
2022/08/12 01:37:10+0000,-34.72,-44.62,-32.79,-48.41,-54.75,-58.68
2022/08/12 01:38:02+0000,-35.66,-45.53,-33.03,-47.11,-54.78,-58.34
2022/08/12 01:38:54+0000,-35.67,-45.81,-32.74,-47.98,-54.92,-58.60
2022/08/12 01:39:47+0000,-36.26,-44.70,-33.07,-47.50,-55.50,-57.94
2022/08/12 01:40:39+0000,-36.82,-44.35,-32.73,-48.78,-55.22,-58.81
2022/08/12 01:41:38+0000,-35.21,-44.15,-33.08,-48.78,-54.94,-58.61
2022/08/12 01:42:30+0000,-36.22,-44.23,-32.95,-46.83,-54.87,-58.20
2022/08/12 01:43:22+0000,-35.05,-45.20,-32.96,-47.43,-54.32,-58.50
2022/08/12 01:44:14+0000,-36.21,-44.43,-32.74,-46.65,-55.14,-58.40
2022/08/12 01:45:06+0000,-35.83,-45.62,-32.80,-47.46,-55.71,-58.33
2022/08/12 01:45:58+0000,-36.40,-43.66,-32.79,-47.15,-55.44,-58.45
2022/08/12 01:46:50+0000,-36.01,-45.46,-32.63,-49.60,-54.40,-58.75
2022/08/12 01:47:42+0000,-35.62,-44.85,-33.12,-46.28,-55.41,-58.41
2022/08/12 01:48:34+0000,-35.27,-45.68,-32.86,-49.69,-54.51,-57.78
2022/08/12 01:49:26+0000,-35.75,-44.56,-32.67,-48.63,-55.17,-58.14
2022/08/12 01:50:18+0000,-36.06,-43.88,-32.45,-47.67,-55.72,-58.69
2022/08/12 01:51:17+0000,-35.35,-44.37,-32.05,-47.09,-55.32,-57.99
2022/08/12 01:52:09+0000,-35.80,-44.55,-32.16,-47.71,-55.28,-58.33
2022/08/12 01:53:01+0000,-35.42,-44.95,-32.17,-48.61,-55.59,-58.40
2022/08/12 01:53:53+0000,-36.41,-44.63,-32.64,-48.90,-55.25,-58.44
2022/08/12 01:54:45+0000,-37.42,-44.83,-32.74,-47.03,-55.71,-58.49
2022/08/12 01:55:37+0000,-35.56,-44.55,-32.12,-47.12,-55.10,-58.45
2022/08/12 01:56:30+0000,-35.85,-44.93,-32.25,-49.09,-55.53,-58.80
2022/08/12 01:57:22+0000,-36.06,-44.42,-32.52,-48.51,-56.08,-58.15
2022/08/12 01:58:14+0000,-35.94,-43.77,-32.56,-48.47,-55.62,-58.52
2022/08/12 01:59:06+0000,-35.46,-44.95,-32.23,-49.71,-54.54,-58.58
2022/08/12 01:59:58+0000,-35.39,-44.24,-32.91,-48.40,-55.61,-58.46
2022/08/12 02:00:50+0000,-35.93,-44.47,-32.75,-50.71,-55.71,-58.43
2022/08/12 02:01:50+0000,-35.01,-44.74,-32.77,-47.98,-55.08,-58.38
2022/08/12 02:02:42+0000,-34.77,-44.24,-32.29,-47.80,-55.99,-57.93
2022/08/12 02:03:34+0000,-35.74,-45.68,-33.14,-50.29,-55.61,-57.75
2022/08/12 02:04:26+0000,-35.34,-44.94,-32.18,-47.47,-55.51,-58.60
2022/08/12 02:05:18+0000,-35.43,-43.73,-33.04,-49.13,-55.11,-57.85
2022/08/12 02:06:10+0000,-36.13,-43.50,-32.47,-48.26,-55.03,-58.10
2022/08/12 02:07:03+0000,-35.82,-44.12,-32.70,-49.12,-55.03,-58.43
2022/08/12 02:07:55+0000,-36.12,-44.28,-32.57,-48.27,-54.72,-59.04
2022/08/12 02:08:47+0000,-36.12,-44.57,-32.60,-48.92,-55.54,-58.33
2022/08/12 02:09:39+0000,-34.81,-44.32,-31.80,-47.60,-55.01,-58.26
2022/08/12 02:10:31+0000,-35.29,-45.27,-32.31,-48.88,-55.02,-58.53
2022/08/12 02:11:30+0000,-36.01,-44.44,-32.03,-48.76,-55.21,-58.49
2022/08/12 02:12:22+0000,-36.42,-45.01,-32.83,-48.40,-55.26,-57.93
2022/08/12 02:13:14+0000,-34.66,-44.14,-32.35,-49.08,-55.55,-58.45
2022/08/12 02:14:06+0000,-35.23,-44.90,-32.27,-49.11,-55.31,-58.53
2022/08/12 02:14:58+0000,-34.84,-44.66,-32.89,-48.93,-54.73,-57.59
2022/08/12 02:15:50+0000,-34.31,-44.07,-32.28,-48.66,-55.12,-58.21
2022/08/12 02:16:42+0000,-36.34,-43.76,-32.83,-49.82,-55.40,-58.30
2022/08/12 02:17:34+0000,-36.19,-43.59,-32.48,-49.44,-54.89,-57.77
2022/08/12 02:18:26+0000,-35.21,-43.32,-32.19,-49.00,-54.71,-58.32
2022/08/12 02:19:18+0000,-35.80,-43.62,-32.34,-49.32,-55.06,-58.21
2022/08/12 02:20:10+0000,-35.27,-44.05,-32.41,-49.26,-55.06,-58.67
2022/08/12 02:21:11+0000,-35.33,-44.05,-32.36,-49.41,-55.07,-58.40
2022/08/12 02:22:03+0000,-35.48,-43.73,-32.59,-50.02,-54.60,-57.97
2022/08/12 02:22:55+0000,-35.86,-44.08,-32.72,-48.98,-55.08,-58.28
2022/08/12 02:23:47+0000,-35.57,-43.81,-32.32,-48.56,-55.44,-58.01
2022/08/12 02:24:39+0000,-36.02,-44.60,-31.93,-48.81,-54.68,-58.23
2022/08/12 02:25:31+0000,-36.49,-43.42,-32.19,-48.35,-55.22,-57.87
2022/08/12 02:26:23+0000,-36.55,-44.16,-32.49,-48.80,-54.89,-58.01
2022/08/12 02:27:15+0000,-35.28,-44.23,-33.42,-46.37,-55.08,-58.25
2022/08/12 02:28:07+0000,-35.85,-44.89,-32.69,-45.80,-55.49,-58.30
2022/08/12 02:28:59+0000,-35.57,-44.40,-33.42,-48.97,-54.94,-58.46
2022/08/12 02:29:51+0000,-35.75,-45.17,-32.79,-47.95,-55.27,-57.42
2022/08/12 02:30:43+0000,-35.56,-43.57,-32.82,-49.01,-54.97,-57.63
2022/08/12 02:31:42+0000,-36.41,-43.94,-31.88,-48.77,-55.66,-57.62
2022/08/12 02:32:34+0000,-36.49,-44.34,-32.90,-50.20,-55.25,-58.44
2022/08/12 02:33:26+0000,-35.13,-43.54,-32.50,-45.84,-55.70,-58.22
2022/08/12 02:34:18+0000,-34.97,-44.62,-33.03,-49.81,-54.84,-57.79
2022/08/12 02:35:10+0000,-36.45,-43.54,-32.86,-49.08,-55.31,-57.80
2022/08/12 02:36:02+0000,-36.65,-43.58,-33.24,-47.56,-55.00,-58.17
2022/08/12 02:36:54+0000,-37.14,-44.58,-32.65,-45.30,-54.94,-58.19
2022/08/12 02:37:46+0000,-35.47,-44.22,-32.15,-48.43,-54.93,-58.12
2022/08/12 02:38:38+0000,-37.20,-44.60,-31.59,-49.19,-54.72,-58.55
2022/08/12 02:39:30+0000,-35.58,-43.31,-32.23,-45.48,-55.25,-58.36
2022/08/12 02:40:22+0000,-33.99,-44.34,-31.96,-45.51,-55.30,-58.24
2022/08/12 02:41:22+0000,-37.29,-44.44,-31.58,-43.95,-55.02,-58.40
2022/08/12 02:42:14+0000,-34.53,-44.46,-31.65,-48.11,-55.26,-57.34
2022/08/12 02:43:06+0000,-36.25,-44.68,-32.38,-49.57,-55.08,-57.94
2022/08/12 02:43:58+0000,-36.59,-44.44,-31.87,-45.50,-54.02,-57.84
2022/08/12 02:44:50+0000,-36.44,-44.29,-32.30,-49.43,-54.88,-57.43
2022/08/12 02:45:42+0000,-36.12,-44.28,-31.98,-47.98,-55.01,-58.72
2022/08/12 02:46:34+0000,-36.27,-43.56,-31.94,-49.35,-55.07,-58.31
2022/08/12 02:47:26+0000,-37.12,-44.36,-32.52,-49.08,-54.78,-58.01
2022/08/12 02:48:18+0000,-36.07,-43.48,-31.80,-47.91,-55.28,-57.80
2022/08/12 02:49:10+0000,-37.27,-44.29,-32.04,-48.33,-54.94,-58.57
2022/08/12 02:50:02+0000,-37.17,-44.01,-32.57,-45.44,-54.85,-58.20
2022/08/12 02:51:01+0000,-36.59,-44.80,-32.36,-44.14,-55.28,-58.05
2022/08/12 02:51:53+0000,-36.77,-44.27,-32.39,-44.84,-54.77,-58.18
2022/08/12 02:52:45+0000,-36.47,-44.22,-32.36,-47.86,-55.54,-57.82
2022/08/12 02:53:37+0000,-35.64,-45.58,-32.01,-48.69,-55.04,-58.01
2022/08/12 02:54:29+0000,-36.20,-43.96,-32.51,-47.66,-55.45,-58.45
2022/08/12 02:55:21+0000,-36.45,-44.60,-32.32,-49.63,-55.36,-57.95
2022/08/12 02:56:13+0000,-35.87,-44.37,-32.49,-49.46,-55.35,-58.42
2022/08/12 02:57:05+0000,-36.75,-43.46,-32.32,-50.68,-55.23,-58.43
2022/08/12 02:57:57+0000,-36.00,-42.08,-32.55,-44.65,-55.47,-57.28
2022/08/12 02:58:49+0000,-36.66,-41.67,-32.42,-49.49,-55.24,-57.46
2022/08/12 02:59:42+0000,-35.91,-42.18,-32.30,-49.35,-54.66,-57.96
2022/08/12 03:00:34+0000,-36.27,-42.56,-32.01,-49.02,-55.64,-57.71
2022/08/12 03:01:34+0000,-36.06,-43.11,-32.06,-51.09,-55.60,-57.88
2022/08/12 03:02:26+0000,-36.77,-43.12,-32.74,-49.44,-54.91,-58.02
2022/08/12 03:03:18+0000,-37.06,-42.20,-32.48,-50.66,-54.54,-58.46
2022/08/12 03:04:10+0000,-37.34,-42.44,-31.94,-49.64,-55.00,-58.15
2022/08/12 03:05:02+0000,-35.70,-42.11,-31.90,-46.32,-55.08,-58.33
2022/08/12 03:05:54+0000,-36.29,-42.25,-32.93,-45.77,-55.78,-58.01
2022/08/12 03:06:46+0000,-37.71,-42.55,-32.14,-49.68,-55.09,-58.14
2022/08/12 03:07:38+0000,-36.63,-43.31,-32.50,-49.03,-55.29,-58.26
2022/08/12 03:08:30+0000,-38.19,-44.14,-32.52,-46.09,-55.80,-58.31
2022/08/12 03:09:22+0000,-36.60,-44.45,-32.66,-44.30,-54.96,-57.75
2022/08/12 03:10:14+0000,-35.73,-42.53,-31.78,-48.57,-55.59,-58.47
2022/08/12 03:11:13+0000,-37.67,-42.69,-32.09,-48.63,-55.14,-58.51
2022/08/12 03:12:05+0000,-35.48,-44.05,-32.32,-49.72,-54.76,-58.10
2022/08/12 03:12:57+0000,-37.29,-43.01,-32.22,-44.00,-55.10,-58.16
2022/08/12 03:13:49+0000,-37.49,-43.05,-31.93,-49.26,-54.95,-57.87
2022/08/12 03:14:41+0000,-36.83,-43.18,-32.09,-49.41,-55.27,-58.32
2022/08/12 03:15:33+0000,-37.40,-43.21,-32.55,-49.97,-55.70,-58.04
2022/08/12 03:16:25+0000,-36.97,-44.33,-32.10,-46.98,-56.72,-57.59
2022/08/12 03:17:17+0000,-35.71,-43.48,-32.19,-48.89,-56.38,-57.87
2022/08/12 03:18:09+0000,-36.00,-44.22,-31.95,-48.14,-56.23,-57.41
2022/08/12 03:19:01+0000,-35.79,-44.06,-32.26,-45.18,-55.73,-58.63
2022/08/12 03:19:53+0000,-37.13,-44.75,-31.69,-44.72,-56.19,-57.53
2022/08/12 03:20:45+0000,-36.14,-43.94,-32.67,-48.97,-55.55,-58.24
2022/08/12 03:21:44+0000,-35.73,-43.69,-32.76,-48.26,-56.09,-58.54
2022/08/12 03:22:36+0000,-36.03,-44.39,-32.34,-48.43,-55.88,-57.91
2022/08/12 03:23:28+0000,-35.91,-43.37,-32.73,-46.33,-55.90,-57.76
2022/08/12 03:24:20+0000,-35.53,-44.82,-31.75,-45.39,-55.57,-57.56
2022/08/12 03:25:12+0000,-34.81,-43.59,-32.10,-48.92,-55.47,-58.27
2022/08/12 03:26:04+0000,-36.60,-42.84,-32.54,-49.80,-56.24,-58.39
2022/08/12 03:26:56+0000,-35.10,-43.39,-31.71,-47.17,-56.70,-58.01
2022/08/12 03:27:49+0000,-35.65,-43.46,-31.65,-50.02,-55.75,-58.83
2022/08/12 03:28:41+0000,-35.45,-43.72,-31.97,-49.77,-55.93,-58.17
2022/08/12 03:29:33+0000,-36.13,-42.96,-32.01,-48.45,-55.96,-57.87
2022/08/12 03:30:25+0000,-36.40,-43.64,-31.82,-47.29,-56.26,-57.98
2022/08/12 03:31:24+0000,-35.95,-43.62,-32.03,-48.73,-56.02,-57.95
2022/08/12 03:32:16+0000,-36.12,-43.11,-32.26,-48.02,-56.35,-58.29
2022/08/12 03:33:08+0000,-36.35,-44.01,-31.58,-48.25,-56.02,-58.05
2022/08/12 03:34:00+0000,-36.34,-43.18,-31.76,-47.40,-56.42,-58.77
2022/08/12 03:34:52+0000,-35.27,-44.42,-32.35,-39.96,-55.85,-58.38
2022/08/12 03:35:44+0000,-36.69,-44.22,-32.56,-48.70,-56.11,-58.36
2022/08/12 03:36:36+0000,-35.98,-44.02,-31.74,-48.75,-56.26,-57.48
2022/08/12 03:37:28+0000,-35.63,-43.85,-32.02,-45.37,-56.27,-58.28
2022/08/12 03:38:20+0000,-35.40,-43.16,-31.90,-49.13,-56.04,-58.01
2022/08/12 03:39:12+0000,-35.15,-43.72,-31.93,-48.59,-56.33,-58.05
2022/08/12 03:40:04+0000,-35.75,-43.47,-30.71,-50.24,-55.97,-58.48
2022/08/12 03:41:04+0000,-35.48,-42.79,-31.80,-49.59,-56.24,-57.82
2022/08/12 03:41:56+0000,-36.01,-43.67,-32.40,-45.75,-56.38,-58.53
2022/08/12 03:42:48+0000,-34.67,-43.52,-32.23,-49.39,-55.68,-57.92
2022/08/12 03:43:40+0000,-34.92,-42.63,-31.79,-49.26,-56.05,-58.16
2022/08/12 03:44:32+0000,-36.18,-44.09,-32.57,-48.66,-56.36,-58.52
2022/08/12 03:45:24+0000,-35.03,-44.15,-32.08,-47.88,-55.87,-58.30
2022/08/12 03:46:16+0000,-36.33,-42.28,-31.74,-48.15,-55.65,-58.12
2022/08/12 03:47:08+0000,-34.35,-44.61,-32.10,-47.89,-55.55,-58.42
2022/08/12 03:48:00+0000,-35.77,-43.36,-31.95,-47.95,-56.47,-58.50
2022/08/12 03:48:52+0000,-35.31,-44.37,-32.27,-48.76,-55.61,-57.60
2022/08/12 03:49:45+0000,-35.34,-43.88,-32.11,-48.56,-55.56,-58.33
2022/08/12 03:50:37+0000,-36.10,-43.74,-32.58,-48.26,-55.96,-58.22
2022/08/12 03:51:36+0000,-35.57,-43.83,-31.88,-48.94,-56.20,-58.44
2022/08/12 03:52:28+0000,-36.36,-43.07,-32.39,-49.20,-55.89,-57.76
2022/08/12 03:53:20+0000,-36.47,-42.56,-31.90,-49.53,-56.05,-58.00
2022/08/12 03:54:12+0000,-35.49,-42.64,-32.25,-48.22,-56.02,-58.49
2022/08/12 03:55:04+0000,-35.21,-44.19,-32.13,-48.94,-56.62,-58.11
2022/08/12 03:55:56+0000,-36.24,-43.99,-32.17,-49.62,-55.89,-57.17
2022/08/12 03:56:48+0000,-35.48,-42.05,-32.10,-48.05,-56.17,-58.10
2022/08/12 03:57:40+0000,-34.83,-42.07,-32.72,-48.24,-55.34,-57.73
2022/08/12 03:58:32+0000,-35.83,-43.12,-31.96,-48.74,-55.48,-58.30
2022/08/12 03:59:24+0000,-36.78,-42.86,-32.45,-48.48,-56.65,-58.71
2022/08/12 04:00:16+0000,-35.40,-43.73,-31.98,-49.12,-56.70,-58.66
2022/08/12 04:01:16+0000,-35.40,-42.94,-32.11,-49.02,-55.73,-57.80
2022/08/12 04:02:08+0000,-36.26,-43.22,-32.16,-48.84,-56.16,-57.90
2022/08/12 04:03:00+0000,-36.35,-43.65,-32.62,-49.20,-55.96,-57.54
2022/08/12 04:03:52+0000,-36.33,-43.25,-32.53,-48.77,-56.10,-57.49
2022/08/12 04:04:44+0000,-36.45,-43.34,-32.39,-49.21,-56.41,-58.08
2022/08/12 04:05:36+0000,-36.43,-43.47,-32.64,-48.06,-55.95,-57.63
2022/08/12 04:06:28+0000,-35.87,-43.81,-33.10,-49.07,-55.68,-58.41
2022/08/12 04:07:20+0000,-34.72,-44.42,-32.38,-48.51,-55.69,-58.30
2022/08/12 04:08:12+0000,-34.82,-40.94,-33.01,-49.15,-55.52,-58.20
2022/08/12 04:09:04+0000,-35.50,-44.03,-33.18,-50.11,-55.96,-58.24
2022/08/12 04:09:56+0000,-35.10,-43.35,-32.47,-48.23,-55.87,-57.84
2022/08/12 04:10:48+0000,-36.22,-41.65,-32.39,-49.69,-56.28,-58.22
2022/08/12 04:11:47+0000,-36.96,-43.19,-31.94,-49.56,-56.55,-58.40
2022/08/12 04:12:39+0000,-36.18,-41.13,-33.16,-49.55,-55.52,-58.13
2022/08/12 04:13:31+0000,-36.36,-42.20,-32.90,-48.77,-55.77,-57.45
2022/08/12 04:14:23+0000,-36.56,-43.96,-32.53,-49.25,-56.41,-57.54
2022/08/12 04:15:15+0000,-36.34,-44.01,-33.22,-48.59,-56.23,-58.14
2022/08/12 04:16:07+0000,-36.49,-42.46,-32.60,-47.42,-55.54,-57.47
2022/08/12 04:17:00+0000,-35.96,-43.31,-32.18,-48.85,-56.12,-57.87
2022/08/12 04:17:52+0000,-36.02,-43.50,-32.67,-49.37,-56.09,-58.30
2022/08/12 04:18:44+0000,-35.57,-42.03,-31.97,-49.46,-55.93,-57.71
2022/08/12 04:19:36+0000,-36.33,-44.07,-32.61,-48.71,-55.72,-58.16
2022/08/12 04:20:28+0000,-36.76,-43.12,-32.53,-48.46,-55.54,-57.41
2022/08/12 04:21:27+0000,-36.92,-42.82,-32.66,-48.64,-55.88,-57.59
2022/08/12 04:22:19+0000,-37.07,-41.97,-32.48,-49.47,-55.18,-57.26
2022/08/12 04:23:12+0000,-36.95,-41.57,-32.43,-47.90,-56.35,-56.99
2022/08/12 04:24:04+0000,-36.87,-42.18,-33.13,-49.51,-55.85,-57.63
2022/08/12 04:24:56+0000,-35.97,-42.65,-32.59,-49.40,-56.09,-57.80
2022/08/12 04:25:48+0000,-36.64,-41.86,-32.52,-48.21,-55.76,-57.43
2022/08/12 04:26:40+0000,-36.24,-42.65,-32.44,-48.76,-56.16,-58.38
2022/08/12 04:27:32+0000,-35.54,-42.26,-32.85,-48.38,-55.69,-58.17
2022/08/12 04:28:24+0000,-36.15,-43.05,-33.08,-49.25,-56.04,-58.02
2022/08/12 04:29:16+0000,-36.42,-41.69,-32.34,-49.34,-55.79,-58.18
2022/08/12 04:30:08+0000,-35.80,-42.12,-32.64,-49.55,-55.84,-58.14
2022/08/12 04:31:07+0000,-36.61,-42.46,-32.60,-48.48,-55.79,-58.46
2022/08/12 04:31:59+0000,-36.18,-41.86,-31.96,-48.73,-55.80,-58.15
2022/08/12 04:32:51+0000,-36.25,-44.31,-32.19,-49.44,-56.21,-58.02
2022/08/12 04:33:43+0000,-36.24,-42.96,-32.48,-49.07,-55.58,-58.82
2022/08/12 04:34:35+0000,-36.24,-43.56,-32.44,-49.51,-55.90,-58.27
2022/08/12 04:35:27+0000,-36.21,-42.13,-32.34,-50.05,-56.19,-57.90
2022/08/12 04:36:19+0000,-36.19,-42.02,-32.78,-49.48,-55.75,-58.15
2022/08/12 04:37:11+0000,-36.96,-42.51,-33.21,-48.58,-56.57,-57.92
2022/08/12 04:38:03+0000,-35.85,-42.31,-32.60,-49.44,-55.54,-57.83
2022/08/12 04:38:56+0000,-36.17,-43.19,-32.94,-49.81,-56.14,-58.43
2022/08/12 04:39:48+0000,-36.76,-42.49,-33.08,-48.24,-55.97,-58.18
2022/08/12 04:40:40+0000,-36.72,-42.77,-32.47,-48.42,-55.92,-58.04
2022/08/12 04:41:39+0000,-35.86,-41.95,-32.40,-48.76,-55.49,-55.80
2022/08/12 04:42:31+0000,-35.63,-41.80,-32.37,-49.14,-56.78,-58.05
2022/08/12 04:43:24+0000,-36.21,-42.99,-32.89,-49.26,-56.01,-58.01
2022/08/12 04:44:16+0000,-35.94,-42.64,-32.80,-48.25,-56.51,-58.01
2022/08/12 04:45:08+0000,-36.66,-43.70,-32.88,-48.16,-55.34,-57.96
2022/08/12 04:46:00+0000,-36.17,-43.82,-32.49,-50.07,-56.40,-58.04
2022/08/12 04:46:52+0000,-36.37,-42.76,-32.41,-49.16,-56.51,-58.05
2022/08/12 04:47:44+0000,-35.23,-42.54,-32.71,-48.22,-56.25,-58.70